When you browse on this site, cookies collect data to enhance your experience and personalize the content and advertising you see.
Visit our Privacy Policy to learn more. By continuing to use the site, you agree to this use of cookies and data.
  • In Romania
  • List of Countries
  • For 7 days
  • Water Temperature
  • Satellite Maps
  • Weather Map
  • Weather Widgets
  • user-avatar
    Login

    Hourly Weather Arrigorriaga

    Today, 25 April, Thursday

    Time Temperature Precipitation Wind Pressure Humidity
    00:00 +10°C° 0 mm 2 mps 729 mmHg 83%
    01:00 +10°C° 0.1 mm 2 mps 729 mmHg 79%
    02:00 +10°C° 0.1 mm 3 mps 729 mmHg 75%
    03:00 +10°C° 0.1 mm 4 mps 730 mmHg 71%
    04:00 +10°C° 0 mm 4 mps 730 mmHg 69%
    05:00 +8°C° 0 mm 5 mps 731 mmHg 67%
    06:00 +8°C° 0 mm 5 mps 731 mmHg 65%
    07:00 +9°C° 0 mm 6 mps 731 mmHg 60%
    08:00 +11°C° 0 mm 6 mps 732 mmHg 54%
    09:00 +12°C° 0 mm 7 mps 732 mmHg 49%
    10:00 +14°C° 0.1 mm 6 mps 733 mmHg 46%
    11:00 +15°C° 0.1 mm 6 mps 733 mmHg 43%
    12:00 +16°C° 0.1 mm 6 mps 733 mmHg 41%
    13:00 +16°C° 0.2 mm 5 mps 733 mmHg 41%
    14:00 +16°C° 0.2 mm 5 mps 734 mmHg 42%
    15:00 +16°C° 0.2 mm 5 mps 734 mmHg 42%
    16:00 +15°C° 0.1 mm 4 mps 734 mmHg 46%
    17:00 +14°C° 0.1 mm 4 mps 734 mmHg 49%
    18:00 +13°C° 0.1 mm 4 mps 734 mmHg 53%
    19:00 +12°C° 0 mm 4 mps 735 mmHg 56%
    20:00 +11°C° 0 mm 4 mps 736 mmHg 60%
    21:00 +11°C° 0 mm 4 mps 736 mmHg 63%
    22:00 +10°C° 0.1 mm 4 mps 737 mmHg 68%
    23:00 +9°C° 0.1 mm 3 mps 738 mmHg 73%

    Tomorrow, 26 April, Friday

    Time Temperature Precipitation Wind Pressure Humidity
    00:00 +8°C° 0.1 mm 3 mps 738 mmHg 78%
    01:00 +8°C° 0 mm 3 mps 739 mmHg 79%
    02:00 +7°C° 0 mm 3 mps 740 mmHg 80%
    03:00 +7°C° 0 mm 3 mps 740 mmHg 81%
    04:00 +7°C° 0.1 mm 3 mps 741 mmHg 81%
    05:00 +8°C° 0.1 mm 3 mps 742 mmHg 80%
    06:00 +8°C° 0.1 mm 3 mps 742 mmHg 80%
    07:00 +10°C° 0 mm 4 mps 743 mmHg 72%
    08:00 +12°C° 0 mm 4 mps 744 mmHg 64%
    09:00 +13°C° 0 mm 5 mps 744 mmHg 57%
    10:00 +14°C° 0 mm 5 mps 745 mmHg 56%
    11:00 +14°C° 0 mm 5 mps 746 mmHg 55%
    12:00 +14°C° 0 mm 5 mps 746 mmHg 54%
    13:00 +14°C° 0 mm 4 mps 746 mmHg 56%
    14:00 +14°C° 0 mm 4 mps 746 mmHg 58%
    15:00 +13°C° 0 mm 3 mps 746 mmHg 60%
    16:00 +12°C° 0 mm 3 mps 746 mmHg 64%
    17:00 +12°C° 0 mm 3 mps 746 mmHg 68%
    18:00 +11°C° 0 mm 3 mps 746 mmHg 71%
    19:00 +10°C° 0 mm 2 mps 747 mmHg 74%
    20:00 +10°C° 0 mm 1 mps 748 mmHg 78%
    21:00 +10°C° 0 mm 1 mps 748 mmHg 81%
    22:00 +9°C° 0 mm 1 mps 748 mmHg 84%
    23:00 +8°C° 0 mm 1 mps 748 mmHg 86%

    Day after tomorrow, 27 April, Saturday

    Time Temperature Precipitation Wind Pressure Humidity
    00:00 +8°C° 0 mm 1 mps 748 mmHg 88%
    01:00 +8°C° 0 mm 1 mps 748 mmHg 88%
    02:00 +8°C° 0 mm 1 mps 748 mmHg 89%
    03:00 +7°C° 0 mm 1 mps 748 mmHg 89%
    04:00 +8°C° 0 mm 1 mps 748 mmHg 86%
    05:00 +8°C° 0 mm 1 mps 748 mmHg 84%
    06:00 +9°C° 0 mm 1 mps 748 mmHg 82%
    07:00 +11°C° 0 mm 1 mps 748 mmHg 75%
    08:00 +13°C° 0 mm 1 mps 749 mmHg 69%
    09:00 +15°C° 0 mm 1 mps 749 mmHg 62%
    10:00 +15°C° 0 mm 2 mps 749 mmHg 62%
    11:00 +16°C° 0 mm 2 mps 749 mmHg 62%
    12:00 +16°C° 0 mm 3 mps 749 mmHg 62%
    13:00 +16°C° 0 mm 3 mps 749 mmHg 65%
    14:00 +14°C° 0 mm 3 mps 748 mmHg 69%
    15:00 +14°C° 0 mm 3 mps 748 mmHg 72%
    16:00 +14°C° 0 mm 2 mps 748 mmHg 75%
    17:00 +13°C° 0 mm 2 mps 748 mmHg 79%
    18:00 +13°C° 0 mm 2 mps 748 mmHg 83%
    19:00 +12°C° 0 mm 1 mps 749 mmHg 86%
    20:00 +11°C° 0 mm 1 mps 749 mmHg 90%
    21:00 +9°C° 0 mm 0 mps 750 mmHg 93%
    22:00 +9°C° 0 mm 0 mps 750 mmHg 93%
    23:00 +8°C° 0 mm 0 mps 750 mmHg 93%

    28 April, Sunday

    Time Temperature Precipitation Wind Pressure Humidity
    00:00 +8°C° 0 mm 0 mps 750 mmHg 93%
    01:00 +7°C° 0 mm 0 mps 749 mmHg 94%
    02:00 +7°C° 0 mm 0 mps 749 mmHg 95%
    03:00 +6°C° 0 mm 0 mps 749 mmHg 96%
    04:00 +6°C° 0 mm 0 mps 749 mmHg 95%
    05:00 +7°C° 0 mm 0 mps 748 mmHg 95%
    06:00 +7°C° 0 mm 0 mps 748 mmHg 94%
    07:00 +10°C° 0 mm 1 mps 748 mmHg 83%
    08:00 +12°C° 0 mm 1 mps 748 mmHg 71%
    09:00 +14°C° 0 mm 1 mps 747 mmHg 59%
    10:00 +15°C° 0 mm 1 mps 747 mmHg 55%
    11:00 +16°C° 0 mm 2 mps 747 mmHg 51%
    12:00 +17°C° 0 mm 3 mps 746 mmHg 46%
    13:00 +17°C° 0 mm 3 mps 746 mmHg 48%
    14:00 +17°C° 0 mm 3 mps 745 mmHg 49%
    15:00 +17°C° 0 mm 3 mps 745 mmHg 50%
    16:00 +16°C° 0 mm 2 mps 745 mmHg 55%
    17:00 +14°C° 0 mm 2 mps 745 mmHg 60%
    18:00 +13°C° 0 mm 2 mps 744 mmHg 65%
    19:00 +12°C° 0 mm 2 mps 745 mmHg 73%
    20:00 +10°C° 0 mm 1 mps 745 mmHg 81%
    21:00 +8°C° 0 mm 1 mps 745 mmHg 90%
    22:00 +8°C° 0 mm 1 mps 745 mmHg 90%
    23:00 +7°C° 0 mm 1 mps 745 mmHg 90%

    29 April, Monday

    Time Temperature Precipitation Wind Pressure Humidity
    00:00 +7°C° 0 mm 1 mps 744 mmHg 91%
    01:00 +7°C° 0 mm 1 mps 744 mmHg 91%
    02:00 +7°C° 0 mm 1 mps 744 mmHg 91%
    03:00 +7°C° 0 mm 1 mps 743 mmHg 91%
    04:00 +7°C° 0 mm 1 mps 743 mmHg 89%
    05:00 +7°C° 0 mm 1 mps 743 mmHg 88%
    06:00 +8°C° 0 mm 1 mps 743 mmHg 86%
    07:00 +10°C° 0 mm 1 mps 743 mmHg 75%
    08:00 +13°C° 0 mm 1 mps 743 mmHg 65%
    09:00 +16°C° 0 mm 1 mps 743 mmHg 54%
    10:00 +17°C° 0 mm 2 mps 743 mmHg 51%
    11:00 +18°C° 0 mm 2 mps 742 mmHg 49%
    12:00 +19°C° 0 mm 2 mps 742 mmHg 47%
    13:00 +19°C° 0 mm 3 mps 741 mmHg 48%
    14:00 +19°C° 0 mm 3 mps 741 mmHg 49%
    15:00 +19°C° 0 mm 3 mps 741 mmHg 51%
    16:00 +17°C° 0 mm 2 mps 740 mmHg 56%
    17:00 +16°C° 0 mm 2 mps 740 mmHg 62%
    18:00 +15°C° 0 mm 2 mps 740 mmHg 68%
    19:00 +13°C° 0 mm 1 mps 741 mmHg 77%
    20:00 +11°C° 0 mm 1 mps 741 mmHg 85%
    21:00 +9°C° 0 mm 1 mps 741 mmHg 94%
    22:00 +9°C° 0 mm 1 mps 741 mmHg 94%
    23:00 +9°C° 0 mm 1 mps 741 mmHg 94%

    30 April, Tuesday

    Time Temperature Precipitation Wind Pressure Humidity
    00:00 +7°C° 0 mm 0 mps 740 mmHg 94%
    01:00 +8°C° 0 mm 1 mps 740 mmHg 93%
    02:00 +8°C° 0 mm 1 mps 740 mmHg 92%
    03:00 +8°C° 0 mm 1 mps 739 mmHg 91%
    04:00 +8°C° 0 mm 1 mps 739 mmHg 89%
    05:00 +8°C° 0 mm 1 mps 739 mmHg 87%
    06:00 +9°C° 0 mm 1 mps 739 mmHg 85%
    07:00 +11°C° 0 mm 1 mps 739 mmHg 75%
    08:00 +14°C° 0 mm 1 mps 739 mmHg 64%
    09:00 +18°C° 0 mm 1 mps 739 mmHg 54%
    10:00 +18°C° 0 mm 2 mps 739 mmHg 51%
    11:00 +19°C° 0 mm 2 mps 739 mmHg 48%
    12:00 +19°C° 0 mm 3 mps 739 mmHg 44%
    13:00 +19°C° 0 mm 3 mps 739 mmHg 44%
    14:00 +19°C° 0 mm 3 mps 738 mmHg 44%
    15:00 +19°C° 0 mm 3 mps 738 mmHg 44%
    16:00 +18°C° 0 mm 2 mps 738 mmHg 49%
    17:00 +17°C° 0 mm 2 mps 738 mmHg 54%
    18:00 +16°C° 0 mm 2 mps 738 mmHg 59%
    19:00 +13°C° 0 mm 1 mps 738 mmHg 67%
    20:00 +11°C° 0 mm 1 mps 738 mmHg 76%
    21:00 +8°C° 0 mm 0 mps 738 mmHg 85%
    22:00 +9°C° 0 mm 1 mps 738 mmHg 83%
    23:00 +9°C° 0 mm 1 mps 738 mmHg 81%
    Show more